[[{"header":{"parameterUnit":"m.s-1","parameterCategory":1,"la1":30.2991,"la2":30.254,"lo1":-89.0895,"lo2":-89.0444,"dy":0.0017,"dx":0.0017,"nx":28,"ny":28,"refTime":"2024-05-12T21:00:00:Z","depth":0,"parameterNumber":2,"parameterNumberName":"U-component_of_WINDS"},"data":[0,0,0,0,0,0,0,0,0,0,0,0,0,0,0,0,0,0,0,0,0,0,0,0,0,0,0,0,0,0,0,0,0,0,0,0,0,0,0,0,0,0,0,0,0,0,0,0,0,0,0,0,0,0,0,0,0,0,-6.1827,-6.1827,0,-6.1833,-6.1833,-6.1833,-6.1731,-6.1728,-6.1725,-6.1722,-6.1727,-6.173,-6.1732,0,0,0,0,0,0,0,0,0,0,0,0,0,-6.1727,-6.1729,-6.1827,-6.1827,-6.1827,-6.1833,-6.1833,-6.1833,-6.1731,-6.1728,-6.1724,-6.1721,-6.1726,-6.1729,-6.1733,0,0,0,0,0,0,0,0,0,0,0,0,0,-6.1755,-6.173,-6.1827,-6.1777,-6.1773,-6.1833,-6.1833,-6.1833,-6.1732,-6.1728,-6.1723,-6.172,-6.1725,-6.1729,-6.1733,-6.1841,0,0,-6.1745,-6.1747,0,0,0,0,0,0,0,0,-6.1754,-6.1759,-6.1784,-6.178,-6.1776,-6.1777,-6.1799,-6.1836,-6.1733,-6.1747,-6.1722,-6.1718,-6.1747,-6.1749,-6.1759,-6.1841,-6.1841,-6.1746,-6.1748,-6.175,-6.1751,0,0,0,0,0,0,0,-6.1752,-6.1758,-6.1829,-6.1785,-6.178,-6.1754,-6.1753,-6.1805,-6.177,-6.1746,-6.1738,-6.174,-6.1744,-6.1755,-6.1758,-6.1841,-6.1746,-6.1749,-6.1752,-6.1753,-6.2011,-6.2015,0,0,0,0,0,0,-6.1757,-6.1757,-6.1829,-6.1829,-6.1754,-6.1759,-6.1759,-6.1781,-6.1769,-6.1764,-6.1744,-6.1736,-6.175,-6.1754,-6.1758,-6.1881,-6.175,-6.1754,-6.1756,-6.2007,-6.2012,-6.2017,0,0,0,0,0,0,-6.1755,-6.1764,-6.1829,-6.1791,-6.1797,-6.1765,-6.1791,-6.1783,-6.1794,-6.1768,-6.1761,-6.1762,-6.1747,-6.1752,-6.1821,-6.188,-6.1756,-6.1759,-6.2001,-6.2008,-6.2014,-6.213,0,0,0,0,0,0,-6.1753,-6.1764,-6.1805,-6.1793,-6.18,-6.1892,-6.1795,-6.1786,-6.1802,-6.1791,-6.1783,-6.1778,-6.1744,-6.1815,-6.1825,-6.1883,-6.1762,-6.1996,-6.2004,-6.2012,-6.2121,-6.214,-6.2157,0,0,0,0,0,-6.1749,-6.1837,-6.1807,-6.1817,-6.185,-6.1895,-6.1899,-6.1859,-6.1807,-6.1847,-6.183,-6.1778,-6.1874,-6.1823,-6.1833,-6.1894,-6.1992,-6.2002,-6.2012,-6.2113,-6.2136,-6.2156,0,0,0,0,0,0,-6.1856,-6.1835,-6.1801,-6.1888,-6.1895,-6.1878,-6.1927,-6.1885,-6.1906,-6.1895,-6.1844,-6.1843,-6.1919,-6.1914,-6.1859,-6.1997,-6.1923,-6.1936,-6.1997,-6.2019,-6.2036,-6.2034,-6.1766,0,0,0,0,0,-6.189,-6.1929,-6.1908,-6.1987,-6.1992,-6.196,-6.1978,-6.1947,-6.1951,-6.1953,-6.1941,-6.1947,-6.1977,-6.1999,-6.2026,-6.2122,-6.2117,-6.2168,-6.2186,-6.2201,-6.2211,-6.2259,-6.2281,-6.2049,-6.2049,-6.2049,0,0,-6.196,-6.1953,-6.198,-6.2008,-6.2009,-6.205,-6.1962,-6.2009,-6.2038,-6.1959,-6.2022,-6.2015,-6.2018,-6.21,-6.2136,-6.2098,-6.2274,-6.2213,-6.2225,-6.2227,-6.2271,-6.2293,-6.2313,-6.2056,-6.2055,-6.2054,0,0,-6.2106,-6.2107,-6.2171,-6.2175,-6.2178,-6.2156,-6.2172,-6.2162,-6.2154,-6.2217,-6.2158,-6.2193,-6.2248,-6.2252,-6.2261,-6.2412,-6.2364,-6.2423,-6.2514,-6.2562,-6.258,-6.2595,-6.2646,-6.2666,-6.2434,-6.2434,-6.2434,0,-6.2192,-6.2251,-6.2209,-6.226,-6.2273,-6.2206,-6.227,-6.2275,-6.2287,-6.2297,-6.2256,-6.2323,-6.232,-6.2401,-6.2438,-6.2449,-6.2464,-6.2421,-6.2581,-6.2596,-6.261,-6.2658,-6.2678,-6.2441,-6.244,-6.2439,-6.2439,0,-6.2355,-6.2397,-6.2449,-6.2462,-6.2482,-6.254,-6.2506,-6.2531,-6.2499,-6.2482,-6.2547,-6.2542,-6.2566,-6.2584,-6.2554,-6.2661,-6.2637,-6.259,-6.2513,-6.264,-6.2684,-6.2702,-6.2451,-6.2448,-6.2446,-6.2444,0,0,-6.2566,-6.2557,-6.2576,-6.258,-6.258,-6.2611,-6.2667,-6.2691,-6.2712,-6.2724,-6.2767,-6.2816,-6.2771,-6.2782,-6.2752,-6.2795,-6.2911,-6.2741,-6.274,-6.277,-6.3027,-6.306,-6.3082,-6.2882,-6.2885,-6.2888,-6.3025,0,-6.2706,-6.2797,-6.2762,-6.2856,-6.2894,-6.2831,-6.2879,-6.2884,-6.287,-6.2899,-6.2884,-6.2918,-6.2859,-6.2864,-6.2904,-6.2889,-6.2961,-6.2879,-6.2919,-6.2921,-6.2915,-6.3105,-6.314,-6.327,-6.3042,-6.3045,-6.3048,0,-6.288,-6.2899,-6.2997,-6.299,-6.3004,-6.3047,-6.3066,-6.3096,-6.31,-6.3087,-6.3101,-6.3061,-6.3114,-6.3042,-6.3112,-6.3057,-6.3072,-6.3067,-6.3071,-6.307,-6.2989,-6.3105,-6.3311,-6.3329,-6.3075,-6.3073,-6.3071,0,-6.302,-6.307,-6.3134,-6.3141,-6.3135,-6.3166,-6.3165,-6.3166,-6.3183,-6.32,-6.321,-6.3234,-6.3246,-6.3265,-6.3233,-6.3184,-6.3308,-6.3233,-6.3296,-6.3297,-6.3321,-6.3319,-6.3528,-6.3338,-6.3338,-6.3338,-6.3337,0,-6.3177,-6.3239,-6.3197,-6.3236,-6.3303,-6.3263,-6.3331,-6.3323,-6.3324,-6.336,-6.331,-6.3344,-6.3302,-6.3333,-6.3309,-6.337,-6.3377,-6.3366,-6.3358,-6.3368,-6.3369,-6.3374,-6.3363,-6.3343,-6.3342,-6.3341,-6.334,0,-6.3342,-6.3317,-6.3383,-6.3372,-6.3371,-6.3421,-6.3412,-6.3447,-6.3431,-6.3478,-6.3486,-6.3461,-6.3495,-6.3466,-6.3499,-6.3483,-6.3563,-6.3544,-6.3561,-6.3554,-6.3617,-6.361,-6.3833,-6.3859,-6.3657,-6.3659,-6.366,0,-6.3442,-6.3488,-6.3483,-6.3504,-6.3506,-6.3541,-6.3557,-6.3521,-6.354,-6.3549,-6.3584,-6.3614,-6.3635,-6.3693,-6.3676,-6.3701,-6.368,-6.3757,-6.3683,-6.3692,-6.3677,-6.3673,-6.3677,-6.377,-6.3773,-6.3775,-6.3776,0,-6.3622,-6.3607,-6.3634,-6.3656,-6.3678,-6.3694,-6.3706,-6.3726,-6.3689,-6.3714,-6.3748,-6.3765,-6.3799,-6.3828,-6.3848,-6.3847,-6.3805,-6.3801,-6.3816,-6.3824,-6.3831,-6.3825,-6.3597,-6.3794,-6.3792,-6.3791,-6.379,-6.3789,-6.3755,-6.3792,-6.3794,-6.3825,-6.3831,-6.3843,-6.3876,-6.3864,-6.3892,-6.3917,-6.3894,-6.3935,-6.3938,-6.3961,-6.3965,-6.3996,-6.3964,-6.3987,-6.3992,-6.3997,-6.4004,-6.383,-6.4,-6.3999,-6.3999,-6.3998,-6.3998,0,-6.3928,-6.3927,-6.3956,-6.3975,-6.3999,-6.396,-6.3972,-6.3994,-6.4031,-6.4038,-6.4061,-6.41,-6.4129,-6.4116,-6.4141,-6.4169,-6.415,-6.4176,-6.4171,-6.4171,-6.4033,-6.4016,-6.4191,-6.4191,-6.4191,-6.419,-6.419,-6.419,-6.4021,-6.4081,-6.4068,-6.413,-6.4128,-6.4168,-6.4178,-6.4189,-6.4194,-6.424,-6.4264,-6.4256,-6.4255,-6.4279,-6.4304,-6.4299,-6.4309,-6.4342,-6.433,-6.4201,-6.4181,-6.4163,-6.4146,-6.4345,-6.4346,-6.4465,-6.4466,-6.4467]},{"header":{"parameterUnit":"m.s-1","parameterCategory":1,"la1":30.2991,"la2":30.254,"lo1":-89.0895,"lo2":-89.0444,"dy":0.0017,"dx":0.0017,"nx":28,"ny":28,"refTime":"2024-05-12T21:00:00:Z","depth":0,"parameterNumber":3,"parameterNumberName":"V-component_of_WINDS"},"data":[0,0,0,0,0,0,0,0,0,0,0,0,0,0,0,0,0,0,0,0,0,0,0,0,0,0,0,0,0,0,0,0,0,0,0,0,0,0,0,0,0,0,0,0,0,0,0,0,0,0,0,0,0,0,0,0,0,0,2.2214,2.2214,0,2.2175,2.2174,2.2174,2.2123,2.2122,2.2121,2.212,2.2077,2.2077,2.2077,0,0,0,0,0,0,0,0,0,0,0,0,0,2.2246,2.2245,2.2214,2.2214,2.2213,2.2175,2.2174,2.2174,2.2123,2.2122,2.2121,2.212,2.2077,2.2077,2.2077,0,0,0,0,0,0,0,0,0,0,0,0,0,2.2222,2.2245,2.2215,2.2183,2.218,2.2175,2.2174,2.2174,2.2123,2.2122,2.212,2.2119,2.2078,2.2077,2.2077,2.2098,0,0,2.2075,2.2075,0,0,0,0,0,0,0,0,2.2223,2.2221,2.2189,2.2186,2.2182,2.2152,2.2169,2.2148,2.2123,2.2145,2.212,2.2119,2.2103,2.21,2.2096,2.2096,2.2094,2.2075,2.2074,2.2074,2.2074,0,0,0,0,0,0,0,2.2225,2.2222,2.2199,2.2188,2.2184,2.2171,2.2167,2.2165,2.2131,2.2143,2.2139,2.2135,2.2101,2.2096,2.2094,2.2093,2.2075,2.2074,2.2074,2.2074,2.2111,2.2112,0,0,0,0,0,0,2.2231,2.2224,2.22,2.2197,2.22,2.2172,2.2166,2.2163,2.2131,2.2125,2.2136,2.2133,2.2098,2.2095,2.2093,2.2116,2.2074,2.2074,2.2073,2.2109,2.2111,2.2112,0,0,0,0,0,0,2.2232,2.223,2.2201,2.221,2.2205,2.2173,2.2169,2.2163,2.2158,2.2126,2.212,2.2137,2.2097,2.2093,2.2097,2.2114,2.2073,2.2073,2.2108,2.211,2.2112,2.2163,0,0,0,0,0,0,2.2233,2.223,2.2238,2.221,2.2205,2.2207,2.217,2.2163,2.2157,2.2153,2.2126,2.212,2.2096,2.2099,2.2097,2.2112,2.2072,2.2106,2.2109,2.2111,2.2159,2.2166,2.2172,0,0,0,0,0,2.2235,2.2253,2.2239,2.2236,2.2214,2.2208,2.2205,2.2177,2.2159,2.2166,2.2146,2.2121,2.2113,2.2099,2.2097,2.2112,2.2105,2.2108,2.2111,2.2157,2.2165,2.2172,0,0,0,0,0,0,2.2282,2.2249,2.2232,2.2243,2.2229,2.22,2.2208,2.2187,2.2177,2.2173,2.2138,2.2133,2.2141,2.2127,2.2113,2.2132,2.2105,2.2108,2.2141,2.2148,2.2155,2.2157,2.2072,0,0,0,0,0,2.2295,2.2293,2.2264,2.2276,2.227,2.2241,2.2237,2.2217,2.2201,2.2195,2.2175,2.216,2.2154,2.215,2.2143,2.2158,2.2151,2.2167,2.2174,2.2179,2.2181,2.2189,2.2196,2.2122,2.2122,2.2122,0,0,2.2319,2.23,2.2301,2.2285,2.2272,2.2271,2.2236,2.2236,2.2235,2.2194,2.2197,2.2182,2.2163,2.2173,2.2177,2.2162,2.2201,2.2183,2.2187,2.2187,2.2193,2.22,2.2206,2.2124,2.2124,2.2123,0,0,2.2363,2.2349,2.2357,2.2346,2.2327,2.2308,2.231,2.2285,2.2274,2.2276,2.2246,2.2245,2.2235,2.2223,2.2216,2.2258,2.2234,2.2257,2.2289,2.2297,2.2303,2.2308,2.2323,2.2329,2.2259,2.2259,2.226,0,2.2395,2.2393,2.2364,2.2367,2.2361,2.2326,2.2335,2.2325,2.2304,2.2301,2.2285,2.2274,2.2258,2.2265,2.2276,2.2271,2.2273,2.2259,2.2304,2.2309,2.2313,2.2327,2.2333,2.2262,2.2262,2.2262,2.2261,0,2.2434,2.2433,2.2442,2.2425,2.242,2.2426,2.2399,2.2397,2.2378,2.2361,2.2365,2.2346,2.2335,2.2335,2.2316,2.234,2.2332,2.2311,2.2283,2.2324,2.2336,2.2342,2.2266,2.2265,2.2264,2.2264,0,0,2.2504,2.2473,2.2477,2.2469,2.2447,2.2446,2.2451,2.2441,2.244,2.2428,2.2432,2.2426,2.2407,2.2399,2.2378,2.2386,2.2421,2.2364,2.2363,2.2375,2.2447,2.2462,2.2469,2.2406,2.2407,2.2408,2.2448,0,2.2544,2.255,2.2526,2.2539,2.2538,2.2506,2.251,2.2497,2.2482,2.2479,2.2461,2.2458,2.2433,2.2428,2.2434,2.2416,2.2435,2.2412,2.2408,2.2408,2.2413,2.2475,2.2491,2.253,2.2453,2.2454,2.2454,0,2.259,2.2582,2.2595,2.2573,2.2572,2.2577,2.2566,2.2564,2.2549,2.2538,2.253,2.2507,2.2511,2.2485,2.249,2.2475,2.2472,2.2463,2.2464,2.2462,2.2433,2.2474,2.2542,2.2548,2.2462,2.2461,2.2461,0,2.264,2.2632,2.2639,2.2634,2.2609,2.2613,2.2603,2.2587,2.2583,2.2574,2.2572,2.2563,2.2559,2.2553,2.2529,2.2512,2.2536,2.2508,2.2526,2.2527,2.2532,2.2532,2.2599,2.2531,2.2531,2.2531,2.2531,0,2.2686,2.2695,2.2662,2.2666,2.2676,2.2648,2.2659,2.2646,2.2632,2.2633,2.2605,2.2607,2.2575,2.2573,2.2555,2.2562,2.256,2.255,2.2545,2.2552,2.2554,2.2549,2.2546,2.2533,2.2532,2.2532,2.2532,0,2.2743,2.2721,2.2727,2.2704,2.2698,2.2707,2.2687,2.269,2.2674,2.2676,2.2675,2.2649,2.2646,2.2622,2.2613,2.26,2.2614,2.2604,2.2619,2.2616,2.2635,2.2634,2.2702,2.271,2.2638,2.2638,2.2639,0,2.2774,2.278,2.2758,2.2758,2.2749,2.2748,2.2745,2.2719,2.2716,2.2701,2.2706,2.2701,2.2695,2.2692,2.2672,2.2666,2.2655,2.2679,2.2653,2.2661,2.2655,2.2655,2.2655,2.2684,2.2685,2.2686,2.2687,0,2.283,2.2819,2.2815,2.2808,2.2805,2.2798,2.279,2.2791,2.2762,2.2761,2.2758,2.2754,2.2746,2.2741,2.2732,2.2721,2.2699,2.2696,2.2699,2.2706,2.2715,2.2711,2.2634,2.2694,2.2693,2.2692,2.2692,2.2692,2.2874,2.2879,2.2865,2.2862,2.2853,2.2846,2.2848,2.2833,2.2831,2.2822,2.2807,2.2807,2.2793,2.2779,2.277,2.277,2.2757,2.2762,2.2763,2.2765,2.2769,2.2716,2.2768,2.2768,2.2767,2.2767,2.2767,0,2.2929,2.2919,2.2917,2.2906,2.2904,2.2885,2.2875,2.2875,2.2875,2.2865,2.286,2.2858,2.2854,2.2835,2.2829,2.2832,2.2822,2.2831,2.283,2.2828,2.2781,2.2778,2.284,2.284,2.284,2.284,2.284,2.284,2.2957,2.2964,2.2952,2.2956,2.2945,2.2945,2.2941,2.2935,2.2926,2.2925,2.2922,2.291,2.2896,2.289,2.2885,2.288,2.2879,2.2892,2.2883,2.2839,2.2832,2.2825,2.2822,2.2892,2.2892,2.293,2.2931,2.2931]}]]